Location: Dealu Mare
(46.0500°N, 22.8167°E)
Time: 22:33:05
(UTC+00:00)

MOS 1 Rocket - Pass Details

Date: 15 January 2026
Orbit: 608 x 815 km, 97.4° (Epoch: 11 February)

Event Time Altitude Azimuth Distance (km) Brightness Sun altitude
Rises 04:49:20 0° 14° (NNE) 3,051 6.6 -13.2°
Reaches altitude 10° 04:51:39 10° 17° (NNE) 2,100 5.8 -12.8°
Maximum altitude 04:56:11 68° 100° (E) 692 3.5 -12.0°
Drops below altitude 10° 05:00:30 10° 185° (S) 1,988 5.8 -11.3°
Sets 05:02:38 0° 187° (S) 2,874 6.6 -11.0°
